Whitefield, NH

1:32 PM EDT on September 20, 2017 (GMT -0400)
Mount Washington Regional

Weather History for KHIE - April, 2013

Change the Weather History Date:

Tuesday, April 30, 2013

  Actual Average Record
Temperature  
Mean Temperature 54 °F -  
Max Temperature 73 °F 58 °F 81 °F (2004)
Min Temperature 37 °F 30 °F 23 °F (2001)
Degree Days  
Heating Degree Days 10    
Growing Degree Days 4 (Base 50)    
Moisture  
Dew Point 37 °F    
Average Humidity 53    
Maximum Humidity 89    
Minimum Humidity 28    
Precipitation  
Precipitation 0.00 in - - ()
Sea Level Pressure  
Sea Level Pressure 30.27 in    
Wind  
Wind Speed 1 mph (West)    
Max Wind Speed 9 mph    
Max Gust Speed -    
Visibility 10 miles    
Events      
Averages and records for this station are not official NWS values.
T = Trace of Precipitation, MM = Missing Value Source: NWS Daily Summary

Daily Weather History Graph

Daily Weather History Graph

Search for Another Location

Airport or City:

Trip Planner

Search our weather history database for the weather conditions in past years. The results will help you decide how hot, cold, wet, or windy it might be!

Date:

Astronomy

Apr. 30, 2013 Rise Set
Actual Time 5:38 AM EDT 7:49 PM EDT
Civil Twilight 5:06 AM EDT 8:21 PM EDT
Nautical Twilight 4:26 AM EDT 9:00 PM EDT
Astronomical Twilight 3:43 AM EDT 9:44 PM EDT
Moon 12:12 AM EDT (4/30) 10:01 AM EDT (4/30)
Length of Visible Light 15h 15m
Length of Day
14h 11m
Waning Gibbous, 70% of the Moon is Illuminated
Apr 30
Waning Gibbous
May 2
Last Quarter
May 9
New
May 18
First Quarter
May 25
Full

Hourly Weather History & Observations

Time (EDT) Temp. Dew Point Humidity Pressure Visibility Wind Dir Wind Speed Gust Speed Precip Events Conditions
12:52 AM 43.0 °F 37.9 °F 82% 30.24 in 10.0 mi Calm Calm - N/A   Mostly Cloudy
1:52 AM 45.0 °F 37.9 °F 76% 30.23 in 10.0 mi Calm Calm - N/A   Overcast
2:52 AM 41.0 °F 37.0 °F 86% 30.23 in 10.0 mi Calm Calm - N/A   Clear
3:52 AM 37.9 °F 35.1 °F 89% 30.25 in 10.0 mi Calm Calm - N/A   Scattered Clouds
4:52 AM 37.0 °F 34.0 °F 89% 30.27 in 10.0 mi Calm Calm - N/A   Partly Cloudy
5:52 AM 39.0 °F 35.1 °F 86% 30.28 in 10.0 mi Calm Calm - N/A   Overcast
6:52 AM 44.1 °F 37.0 °F 76% 30.30 in 10.0 mi Calm Calm - N/A   Overcast
7:52 AM 51.1 °F 39.0 °F 63% 30.31 in 10.0 mi Calm Calm - N/A   Partly Cloudy
8:52 AM 57.9 °F 37.0 °F 46% 30.31 in 10.0 mi Calm Calm - N/A   Overcast
9:52 AM 62.1 °F 37.9 °F 41% 30.30 in 10.0 mi Calm Calm - N/A   Clear
10:52 AM 64.9 °F 39.0 °F 39% 30.29 in 10.0 mi ENE 6.9 mph - N/A   Clear
11:52 AM 68.0 °F 39.9 °F 36% 30.27 in 10.0 mi Variable 5.8 mph - N/A   Clear
12:52 PM 70.0 °F 41.0 °F 35% 30.25 in 10.0 mi Variable 5.8 mph - N/A   Mostly Cloudy
1:52 PM 71.1 °F 41.0 °F 34% 30.25 in 10.0 mi WNW 4.6 mph - N/A   Mostly Cloudy
2:52 PM 72.0 °F 39.0 °F 30% 30.25 in 10.0 mi Variable 4.6 mph - N/A   Partly Cloudy
3:52 PM 70.0 °F 39.0 °F 32% 30.25 in 10.0 mi West 3.5 mph - N/A   Overcast
4:52 PM 71.1 °F 37.9 °F 30% 30.25 in 10.0 mi Calm Calm - N/A   Overcast
5:52 PM 71.1 °F 39.9 °F 32% 30.25 in 10.0 mi Calm Calm - N/A   Overcast
6:52 PM 70.0 °F 37.9 °F 31% 30.26 in 10.0 mi Calm Calm - N/A   Overcast
7:52 PM 66.0 °F 32.0 °F 28% 30.27 in 10.0 mi South 9.2 mph - N/A   Overcast
8:52 PM 63.0 °F 32.0 °F 31% 30.28 in 10.0 mi Variable 5.8 mph - N/A   Clear
9:52 PM 55.0 °F 35.1 °F 47% 30.31 in 10.0 mi Calm Calm - N/A   Partly Cloudy
10:52 PM 48.0 °F 37.0 °F 66% 30.32 in 10.0 mi Calm Calm - N/A   Clear
11:52 PM 44.1 °F 36.0 °F 73% 30.33 in 10.0 mi Calm Calm - N/A   Clear